| time (UTC) | temp F | wind direction | speed MPH | gust MPH | rain 1hr in | rain 24hr in | rain mn in | humidity % | barometer mb |
| 20260906204716 | 84 | 161 | 9.0 | 13.0 | 0.00 | 0.00 | 0.00 | 60 | 1009.1 |
| 20260906204236 | 84 | 164 | 7.0 | 13.0 | 0.00 | 0.00 | 0.00 | 60 | 1009.1 |
| 20260906203816 | 85 | 122 | 9.0 | 12.0 | 0.00 | 0.00 | 0.00 | 59 | 1009.1 |
| 20260906203415 | 85 | 136 | 11.0 | 14.0 | 0.00 | 0.00 | 0.00 | 60 | 1009.1 |
| 20260906202914 | 84 | 144 | 5.0 | 14.0 | 0.00 | 0.00 | 0.00 | 57 | 1009.1 |
| 20260906202514 | 85 | 125 | 2.0 | 12.0 | 0.00 | 0.00 | 0.00 | 59 | 1009.1 |
| 20260906202039 | 85 | 140 | 5.0 | 12.0 | 0.00 | 0.00 | 0.00 | 57 | 1009.1 |
| 20260906201640 | 85 | 136 | 10.0 | 12.0 | 0.00 | 0.00 | 0.00 | 59 | 1009.1 |
| 20260906201213 | 85 | 192 | 4.0 | 12.0 | 0.00 | 0.00 | 0.00 | 58 | 1009.1 |
| 20260906200740 | 85 | 160 | 6.0 | 10.0 | 0.00 | 0.00 | 0.00 | 60 | 1009.5 |
| 20260906200314 | 85 | 163 | 7.0 | 11.0 | 0.00 | 0.00 | 0.00 | 59 | 1009.5 |
| 20260906195842 | 85 | 153 | 7.0 | 11.0 | 0.00 | 0.00 | 0.00 | 60 | 1009.5 |
| 20260906195412 | 85 | 134 | 5.0 | 12.0 | 0.00 | 0.00 | 0.00 | 59 | 1009.5 |
| 20260906194913 | 85 | 208 | 2.0 | 12.0 | 0.00 | 0.00 | 0.00 | 59 | 1009.5 |
| 20260906194413 | 85 | 166 | 4.0 | 11.0 | 0.00 | 0.00 | 0.00 | 59 | 1009.5 |
| 20260906193912 | 85 | 184 | 1.0 | 11.0 | 0.00 | 0.00 | 0.00 | 56 | 1009.5 |
| 20260906193340 | 85 | 192 | 4.0 | 12.0 | 0.00 | 0.00 | 0.00 | 57 | 1009.5 |
| 20260906192840 | 85 | 181 | 5.0 | 12.0 | 0.00 | 0.00 | 0.00 | 57 | 1009.8 |
| 20260906192438 | 85 | 176 | 8.0 | 12.0 | 0.00 | 0.00 | 0.00 | 55 | 1009.8 |
| 20260906192012 | 85 | 180 | 8.0 | 9.0 | 0.00 | 0.00 | 0.00 | 56 | 1009.8 |
| 20260906191545 | 85 | 171 | 5.0 | 10.0 | 0.00 | 0.00 | 0.00 | 59 | 1009.8 |
| 20260906191113 | 84 | 193 | 9.0 | 10.0 | 0.00 | 0.00 | 0.00 | 58 | 1009.8 |
| 20260906190612 | 84 | 192 | 2.0 | 11.0 | 0.00 | 0.00 | 0.00 | 58 | 1009.8 |
| 20260906190141 | 84 | 167 | 5.0 | 12.0 | 0.00 | 0.00 | 0.00 | 57 | 1009.8 |
| 20260906185713 | 84 | 199 | 9.0 | 12.0 | 0.00 | 0.00 | 0.00 | 57 | 1009.8 |
| 20260906185239 | 84 | 186 | 6.0 | 12.0 | 0.00 | 0.00 | 0.00 | 57 | 1009.8 |
| 20260906184812 | 84 | 200 | 5.0 | 12.0 | 0.00 | 0.00 | 0.00 | 57 | 1010.2 |
| 20260906184343 | 84 | 199 | 11.0 | 12.0 | 0.00 | 0.00 | 0.00 | 57 | 1010.2 |
| 20260906183912 | 83 | 198 | 4.0 | 11.0 | 0.00 | 0.00 | 0.00 | 57 | 1010.2 |
| 20260906183413 | 83 | 185 | 3.0 | 12.0 | 0.00 | 0.00 | 0.00 | 58 | 1010.2 |
| 20260906182914 | 83 | 181 | 4.0 | 10.0 | 0.00 | 0.00 | 0.00 | 60 | 1010.2 |
| 20260906182412 | 83 | 170 | 4.0 | 10.0 | 0.00 | 0.00 | 0.00 | 58 | 1010.5 |
| 20260906181939 | 83 | 211 | 10.0 | 13.0 | 0.00 | 0.00 | 0.00 | 59 | 1010.5 |
| 20260906181510 | 83 | 205 | 8.0 | 13.0 | 0.00 | 0.00 | 0.00 | 59 | 1010.5 |
| 20260906181039 | 83 | 168 | 2.0 | 10.0 | 0.00 | 0.00 | 0.00 | 60 | 1010.5 |
| 20260906180613 | 83 | 185 | 7.0 | 11.0 | 0.00 | 0.00 | 0.00 | 58 | 1010.5 |
| 20260906180213 | 83 | 207 | 10.0 | 11.0 | 0.00 | 0.00 | 0.00 | 59 | 1010.8 |
| 20260906175711 | 83 | 192 | 8.0 | 11.0 | 0.00 | 0.00 | 0.00 | 58 | 1010.8 |
| 20260906175314 | 83 | 187 | 6.0 | 12.0 | 0.00 | 0.00 | 0.00 | 61 | 1010.8 |
| 20260906174844 | 82 | 186 | 5.0 | 11.0 | 0.00 | 0.00 | 0.00 | 57 | 1010.8 |
| 20260906174412 | 82 | 175 | 1.0 | 10.0 | 0.00 | 0.00 | 0.00 | 58 | 1010.8 |
| 20260906173942 | 82 | 200 | 9.0 | 11.0 | 0.00 | 0.00 | 0.00 | 57 | 1010.8 |
| 20260906173538 | 82 | 217 | 5.0 | 10.0 | 0.00 | 0.00 | 0.00 | 57 | 1010.8 |
| 20260906173111 | 82 | 199 | 6.0 | 10.0 | 0.00 | 0.00 | 0.00 | 60 | 1010.8 |
| 20260906172643 | 81 | 216 | 7.0 | 11.0 | 0.00 | 0.00 | 0.00 | 57 | 1010.8 |
| 20260906172145 | 81 | 199 | 2.0 | 11.0 | 0.00 | 0.00 | 0.00 | 59 | 1011.2 |
| 20260906171642 | 80 | 203 | 6.0 | 13.0 | 0.00 | 0.00 | 0.00 | 59 | 1011.2 |
| 20260906171143 | 80 | 207 | 5.0 | 13.0 | 0.00 | 0.00 | 0.00 | 60 | 1011.2 |
| 20260906170642 | 80 | 186 | 3.0 | 11.0 | 0.00 | 0.00 | 0.00 | 60 | 1011.2 |
| 20260906170140 | 80 | 175 | 8.0 | 11.0 | 0.00 | 0.00 | 0.00 | 61 | 1011.2 |
| 20260906165642 | 79 | 204 | 7.0 | 11.0 | 0.00 | 0.00 | 0.00 | 61 | 1011.2 |
| 20260906165143 | 79 | 198 | 5.0 | 11.0 | 0.00 | 0.00 | 0.00 | 62 | 1011.5 |
| 20260906164646 | 78 | 205 | 2.0 | 11.0 | 0.00 | 0.00 | 0.00 | 64 | 1011.5 |
| 20260906164153 | 78 | 200 | 8.0 | 12.0 | 0.00 | 0.00 | 0.00 | 63 | 1011.2 |
| 20260906163656 | 78 | 189 | 7.0 | 12.0 | 0.00 | 0.00 | 0.00 | 63 | 1011.5 |
| 20260906163212 | 77 | 180 | 8.0 | 11.0 | 0.00 | 0.00 | 0.00 | 65 | 1011.5 |
| 20260906162714 | 77 | 196 | 9.0 | 11.0 | 0.00 | 0.00 | 0.00 | 65 | 1011.5 |
| 20260906162239 | 76 | 193 | 3.0 | 11.0 | 0.00 | 0.00 | 0.00 | 65 | 1011.5 |
| 20260906161831 | 76 | 187 | 5.0 | 11.0 | 0.00 | 0.00 | 0.00 | 66 | 1011.5 |
| 20260906161338 | 76 | 225 | 10.0 | 12.0 | 0.00 | 0.00 | 0.00 | 69 | 1011.5 |
| 20260906160926 | 75 | 212 | 6.0 | 12.0 | 0.00 | 0.00 | 0.00 | 67 | 1011.5 |
| 20260906160426 | 75 | 198 | 7.0 | 12.0 | 0.00 | 0.00 | 0.00 | 68 | 1011.5 |
| 20260906155932 | 75 | 190 | 8.0 | 11.0 | 0.00 | 0.00 | 0.00 | 68 | 1011.5 |
| 20260906155441 | 74 | 204 | 6.0 | 11.0 | 0.00 | 0.00 | 0.00 | 68 | 1011.5 |
| 20260906154950 | 74 | 190 | 10.0 | 11.0 | 0.00 | 0.00 | 0.00 | 70 | 1011.5 |
| 20260906154507 | 74 | 217 | 8.0 | 11.0 | 0.00 | 0.00 | 0.00 | 70 | 1011.5 |
| 20260906154041 | 74 | 205 | 9.0 | 10.0 | 0.00 | 0.00 | 0.00 | 70 | 1011.5 |
| 20260906153541 | 73 | 193 | 4.0 | 10.0 | 0.00 | 0.00 | 0.00 | 72 | 1011.5 |
| 20260906153101 | 73 | 194 | 5.0 | 10.0 | 0.00 | 0.00 | 0.00 | 72 | 1011.9 |
| 20260906152619 | 72 | 182 | 7.0 | 10.0 | 0.00 | 0.00 | 0.00 | 72 | 1011.5 |
| 20260906152143 | 72 | 181 | 6.0 | 9.0 | 0.00 | 0.00 | 0.00 | 74 | 1011.5 |
| 20260906151555 | 71 | 172 | 0.0 | 9.0 | 0.00 | 0.00 | 0.00 | 75 | 1011.5 |
| 20260906151119 | 71 | 184 | 1.0 | 8.0 | 0.00 | 0.00 | 0.00 | 76 | 1011.5 |
| 20260906150646 | 70 | 186 | 2.0 | 8.0 | 0.00 | 0.00 | 0.00 | 74 | 1011.5 |
| 20260906150214 | 70 | 211 | 4.0 | 8.0 | 0.00 | 0.00 | 0.00 | 73 | 1011.5 |
| 20260906145638 | 70 | 203 | 1.0 | 8.0 | 0.00 | 0.00 | 0.00 | 76 | 1011.5 |
| 20260906145142 | 69 | 220 | 0.0 | 7.0 | 0.00 | 0.00 | 0.00 | 76 | 1011.9 |
| 20260906144605 | 69 | 219 | 0.0 | 7.0 | 0.00 | 0.00 | 0.00 | 76 | 1011.9 |
| 20260906144027 | 69 | 196 | 2.0 | 7.0 | 0.00 | 0.00 | 0.00 | 76 | 1012.2 |
| 20260906143555 | 69 | 200 | 3.0 | 6.0 | 0.00 | 0.00 | 0.00 | 77 | 1011.9 |
| 20260906143125 | 68 | 221 | 0.0 | 6.0 | 0.00 | 0.00 | 0.00 | 77 | 1012.2 |
| 20260906142655 | 68 | 232 | 1.0 | 7.0 | 0.00 | 0.00 | 0.00 | 78 | 1012.2 |
| 20260906142240 | 68 | 244 | 1.0 | 7.0 | 0.00 | 0.00 | 0.00 | 78 | 1012.2 |
| 20260906141739 | 67 | 222 | 1.0 | 6.0 | 0.00 | 0.00 | 0.00 | 80 | 1012.2 |
| 20260906141212 | 66 | 264 | 0.0 | 6.0 | 0.00 | 0.00 | 0.00 | 80 | 1012.2 |
| 20260906140635 | 66 | 265 | 0.0 | 2.0 | 0.00 | 0.00 | 0.00 | 84 | 1012.2 |
| 20260906140139 | 65 | 265 | 0.0 | 3.0 | 0.00 | 0.00 | 0.00 | 86 | 1012.2 |
| 20260906135640 | 65 | 265 | 0.0 | 3.0 | 0.00 | 0.00 | 0.00 | 87 | 1012.2 |
| 20260906135137 | 64 | 328 | 1.0 | 2.0 | 0.00 | 0.00 | 0.00 | 88 | 1012.2 |
| 20260906134700 | 64 | 329 | 0.0 | 1.0 | 0.00 | 0.00 | 0.00 | 89 | 1012.2 |
| 20260906134143 | 63 | 329 | 0.0 | 1.0 | 0.00 | 0.00 | 0.00 | 89 | 1012.2 |
| 20260906133728 | 62 | 329 | 0.0 | 1.0 | 0.00 | 0.00 | 0.00 | 90 | 1012.5 |
| 20260906133214 | 62 | 329 | 0.0 | 1.0 | 0.00 | 0.00 | 0.00 | 90 | 1012.2 |
| 20260906132740 | 62 | 329 | 0.0 | 1.0 | 0.00 | 0.00 | 0.00 | 91 | 1012.2 |
| 20260906132251 | 61 | 329 | 0.0 | 1.0 | 0.00 | 0.00 | 0.00 | 91 | 1012.2 |
| 20260906131843 | 60 | 329 | 0.0 | 1.0 | 0.00 | 0.00 | 0.00 | 91 | 1012.2 |
| 20260906131336 | 60 | 329 | 0.0 | 1.0 | 0.00 | 0.00 | 0.00 | 91 | 1012.2 |
| 20260906130843 | 60 | 329 | 0.0 | 3.0 | 0.00 | 0.00 | 0.00 | 91 | 1012.2 |
| 20260906130414 | 59 | 329 | 0.0 | 3.0 | 0.00 | 0.00 | 0.00 | 91 | 1012.2 |
| 20260906125955 | 59 | 329 | 2.0 | 2.0 | 0.00 | 0.00 | 0.00 | 91 | 1012.2 |
| 20260906125548 | 59 | 329 | 0.0 | 2.0 | 0.00 | 0.00 | 0.00 | 91 | 1012.2 |
| 20260906125036 | 58 | 329 | 0.0 | 3.0 | 0.00 | 0.00 | 0.00 | 91 | 1012.2 |
| 20260906124529 | 58 | 329 | 2.0 | 3.0 | 0.00 | 0.00 | 0.00 | 90 | 1012.2 |
| 20260906124024 | 58 | 329 | 2.0 | 3.0 | 0.00 | 0.00 | 0.00 | 90 | 1012.2 |
| 20260906123542 | 58 | 329 | 2.0 | 4.0 | 0.00 | 0.00 | 0.00 | 90 | 1012.2 |
| 20260906123114 | 58 | 329 | 3.0 | 3.0 | 0.00 | 0.00 | 0.00 | 90 | 1012.2 |
| 20260906122640 | 59 | 329 | 1.0 | 2.0 | 0.00 | 0.00 | 0.00 | 90 | 1012.5 |
| 20260906122215 | 59 | 329 | 0.0 | 4.0 | 0.00 | 0.00 | 0.00 | 90 | 1012.2 |
| 20260906121814 | 59 | 329 | 1.0 | 4.0 | 0.00 | 0.00 | 0.00 | 90 | 1012.2 |
| 20260906121339 | 59 | 330 | 2.0 | 3.0 | 0.00 | 0.00 | 0.00 | 90 | 1012.2 |
| 20260906120904 | 59 | 330 | 1.0 | 3.0 | 0.00 | 0.00 | 0.00 | 90 | 1012.2 |
| 20260906120438 | 59 | 331 | 1.0 | 4.0 | 0.00 | 0.00 | 0.00 | 89 | 1012.5 |
| 20260906120022 | 59 | 328 | 1.0 | 4.0 | 0.00 | 0.00 | 0.00 | 89 | 1012.2 |
| 20260906115601 | 59 | 329 | 2.0 | 5.0 | 0.00 | 0.00 | 0.00 | 89 | 1012.5 |
| 20260906115042 | 59 | 304 | 3.0 | 5.0 | 0.00 | 0.00 | 0.00 | 89 | 1012.5 |
| 20260906114602 | 60 | 258 | 2.0 | 4.0 | 0.00 | 0.00 | 0.00 | 89 | 1012.2 |
| 20260906114201 | 60 | 258 | 3.0 | 4.0 | 0.00 | 0.00 | 0.00 | 89 | 1012.2 |
| 20260906113705 | 60 | 253 | 2.0 | 4.0 | 0.00 | 0.00 | 0.00 | 90 | 1011.9 |
| 20260906113242 | 60 | 258 | 0.0 | 4.0 | 0.00 | 0.00 | 0.00 | 90 | 1011.9 |
| 20260906112841 | 59 | 258 | 1.0 | 4.0 | 0.00 | 0.00 | 0.00 | 91 | 1011.9 |
| 20260906112306 | 59 | 257 | 4.0 | 4.0 | 0.00 | 0.00 | 0.00 | 91 | 1011.5 |
| 20260906111801 | 59 | 244 | 4.0 | 4.0 | 0.00 | 0.00 | 0.00 | 91 | 1011.5 |
| 20260906111300 | 59 | 221 | 0.0 | 2.0 | 0.00 | 0.00 | 0.00 | 91 | 1011.5 |
| 20260906110801 | 59 | 221 | 2.0 | 3.0 | 0.00 | 0.00 | 0.00 | 90 | 1011.5 |
| 20260906110300 | 59 | 221 | 1.0 | 3.0 | 0.00 | 0.00 | 0.00 | 90 | 1011.5 |
| 20260906105759 | 58 | 221 | 1.0 | 3.0 | 0.00 | 0.00 | 0.00 | 90 | 1011.5 |
| 20260906105300 | 58 | 221 | 2.0 | 2.0 | 0.00 | 0.00 | 0.00 | 90 | 1011.5 |
| 20260906104759 | 59 | 221 | 0.0 | 2.0 | 0.00 | 0.00 | 0.00 | 90 | 1011.5 |
| 20260906104259 | 59 | 221 | 2.0 | 2.0 | 0.00 | 0.00 | 0.00 | 89 | 1011.5 |
| 20260906103759 | 59 | 221 | 2.0 | 2.0 | 0.00 | 0.00 | 0.00 | 89 | 1011.2 |
| 20260906103301 | 59 | 221 | 0.0 | 2.0 | 0.00 | 0.00 | 0.00 | 89 | 1011.2 |
| 20260906102758 | 59 | 221 | 0.0 | 2.0 | 0.00 | 0.00 | 0.00 | 89 | 1011.2 |
| 20260906102258 | 59 | 221 | 2.0 | 3.0 | 0.00 | 0.00 | 0.00 | 89 | 1011.2 |
| 20260906101758 | 59 | 221 | 2.0 | 3.0 | 0.00 | 0.00 | 0.00 | 89 | 1010.8 |
| 20260906101303 | 60 | 221 | 0.0 | 3.0 | 0.00 | 0.00 | 0.00 | 89 | 1010.8 |
| 20260906100758 | 59 | 221 | 2.0 | 3.0 | 0.00 | 0.00 | 0.00 | 89 | 1010.8 |
| 20260906100257 | 59 | 208 | 1.0 | 3.0 | 0.00 | 0.00 | 0.00 | 88 | 1010.8 |
| 20260906095757 | 60 | 207 | 1.0 | 2.0 | 0.00 | 0.00 | 0.00 | 88 | 1010.8 |
| 20260906095256 | 60 | 207 | 0.0 | 0.0 | 0.00 | 0.00 | 0.00 | 87 | 1010.8 |
| 20260906094756 | 60 | 207 | 0.0 | 0.0 | 0.00 | 0.00 | 0.00 | 87 | 1010.8 |
| 20260906094255 | 60 | 207 | 0.0 | 0.0 | 0.00 | 0.00 | 0.00 | 87 | 1010.8 |
| 20260906093755 | 60 | 207 | 0.0 | 0.0 | 0.00 | 0.00 | 0.00 | 86 | 1010.8 |
| 20260906093253 | 61 | 207 | 0.0 | 0.0 | 0.00 | 0.00 | 0.00 | 86 | 1010.5 |
| 20260906092754 | 61 | 207 | 0.0 | 0.0 | 0.00 | 0.00 | 0.00 | 85 | 1010.8 |
| 20260906092253 | 61 | 207 | 0.0 | 0.0 | 0.00 | 0.00 | 0.00 | 85 | 1010.5 |
| 20260906091754 | 62 | 207 | 0.0 | 1.0 | 0.00 | 0.00 | 0.00 | 84 | 1010.8 |
| 20260906091253 | 62 | 207 | 0.0 | 1.0 | 0.00 | 0.00 | 0.00 | 84 | 1010.5 |
| 20260906090752 | 62 | 207 | 0.0 | 0.0 | 0.00 | 0.00 | 0.00 | 84 | 1010.5 |
| 20260906090253 | 63 | 207 | 0.0 | 0.0 | 0.00 | 0.00 | 0.00 | 84 | 1010.5 |
| 20260906085754 | 63 | 207 | 0.0 | 0.0 | 0.00 | 0.00 | 0.00 | 84 | 1010.5 |
| 20260906085251 | 63 | 207 | 0.0 | 1.0 | 0.00 | 0.00 | 0.00 | 84 | 1010.5 |
| 20260906084852 | 63 | 207 | 0.0 | 1.0 | 0.00 | 0.00 | 0.00 | 85 | 1010.2 |
| 20260906084351 | 62 | 207 | 0.0 | 0.0 | 0.00 | 0.00 | 0.00 | 86 | 1010.2 |
| 20260906083951 | 62 | 207 | 0.0 | 0.0 | 0.00 | 0.00 | 0.00 | 85 | 1010.5 |
| 20260906083452 | 62 | 213 | 0.0 | 2.0 | 0.00 | 0.00 | 0.00 | 84 | 1010.2 |
| 20260906082952 | 63 | 213 | 0.0 | 2.0 | 0.00 | 0.00 | 0.00 | 83 | 1010.2 |
| 20260906082452 | 63 | 213 | 0.0 | 0.0 | 0.00 | 0.00 | 0.00 | 83 | 1010.5 |
| 20260906081949 | 64 | 212 | 0.0 | 0.0 | 0.00 | 0.00 | 0.00 | 82 | 1010.5 |
| 20260906081450 | 64 | 213 | 0.0 | 0.0 | 0.00 | 0.00 | 0.00 | 82 | 1010.5 |
| 20260906080950 | 64 | 213 | 0.0 | 0.0 | 0.00 | 0.00 | 0.00 | 82 | 1010.5 |
| 20260906080450 | 64 | 213 | 0.0 | 2.0 | 0.00 | 0.00 | 0.00 | 81 | 1010.5 |
| 20260906075952 | 65 | 213 | 0.0 | 3.0 | 0.00 | 0.00 | 0.00 | 81 | 1010.5 |
| 20260906075449 | 65 | 212 | 2.0 | 5.0 | 0.00 | 0.00 | 0.00 | 81 | 1010.5 |
| 20260906074949 | 65 | 211 | 2.0 | 7.0 | 0.00 | 0.00 | 0.00 | 80 | 1010.5 |
| 20260906074446 | 66 | 209 | 2.0 | 6.0 | 0.00 | 0.00 | 0.00 | 80 | 1010.5 |
| 20260906073946 | 66 | 205 | 3.0 | 7.0 | 0.00 | 0.00 | 0.00 | 80 | 1010.5 |
| 20260906073449 | 66 | 190 | 4.0 | 7.0 | 0.00 | 0.00 | 0.00 | 79 | 1010.8 |
| 20260906072947 | 66 | 186 | 4.0 | 7.0 | 0.00 | 0.00 | 0.00 | 79 | 1010.8 |
| 20260906072448 | 66 | 217 | 4.0 | 6.0 | 0.00 | 0.00 | 0.00 | 79 | 1010.8 |
| 20260906071946 | 66 | 210 | 3.0 | 8.0 | 0.00 | 0.00 | 0.00 | 79 | 1010.8 |
| 20260906071446 | 66 | 218 | 1.0 | 8.0 | 0.00 | 0.00 | 0.00 | 78 | 1010.8 |
| 20260906070951 | 67 | 198 | 2.0 | 7.0 | 0.00 | 0.00 | 0.00 | 78 | 1010.8 |
| 20260906070451 | 67 | 207 | 2.0 | 8.0 | 0.00 | 0.00 | 0.00 | 77 | 1010.5 |
| 20260906065944 | 68 | 207 | 5.0 | 8.0 | 0.00 | 0.00 | 0.00 | 77 | 1010.8 |
| 20260906065444 | 68 | 198 | 5.0 | 7.0 | 0.00 | 0.00 | 0.00 | 76 | 1010.8 |
| 20260906064844 | 68 | 182 | 6.0 | 7.0 | 0.00 | 0.00 | 2.38 | 75 | 1010.5 |
| 20260906064343 | 69 | 180 | 4.0 | 11.0 | 0.00 | 0.00 | 2.38 | 74 | 1010.8 |
| 20260906063843 | 69 | 173 | 3.0 | 12.0 | 0.00 | 0.00 | 2.38 | 73 | 1010.8 |
| 20260906063343 | 69 | 156 | 9.0 | 12.0 | 0.00 | 0.00 | 2.38 | 73 | 1010.8 |
| 20260906062843 | 69 | 166 | 6.0 | 10.0 | 0.00 | 0.00 | 2.38 | 73 | 1010.8 |
| 20260906062342 | 69 | 161 | 6.0 | 9.0 | 0.00 | 0.00 | 2.38 | 73 | 1010.8 |
| 20260906061840 | 69 | 155 | 6.0 | 9.0 | 0.00 | 0.00 | 2.38 | 74 | 1010.8 |
| 20260906061341 | 68 | 153 | 5.0 | 9.0 | 0.00 | 0.00 | 2.38 | 75 | 1010.8 |
| 20260906060839 | 68 | 165 | 2.0 | 9.0 | 0.00 | 0.00 | 2.38 | 77 | 1011.2 |
| 20260906060340 | 68 | 157 | 3.0 | 9.0 | 0.00 | 0.00 | 2.38 | 79 | 1010.8 |
| 20260906055842 | 67 | 202 | 0.0 | 2.0 | 0.00 | 0.00 | 2.38 | 83 | 1011.2 |
| 20260906055342 | 66 | 202 | 0.0 | 2.0 | 0.00 | 0.00 | 2.38 | 83 | 1010.8 |
| 20260906054840 | 66 | 202 | 0.0 | 4.0 | 0.00 | 0.00 | 2.38 | 83 | 1010.8 |
| 20260906054347 | 67 | 202 | 1.0 | 4.0 | 0.00 | 0.00 | 2.38 | 83 | 1010.8 |
| 20260906053841 | 67 | 169 | 4.0 | 4.0 | 0.00 | 0.00 | 2.38 | 82 | 1010.8 |
| 20260906053341 | 67 | 160 | 1.0 | 2.0 | 0.00 | 0.00 | 2.38 | 82 | 1010.8 |
| 20260906052838 | 68 | 160 | 0.0 | 2.0 | 0.00 | 0.00 | 2.38 | 82 | 1010.8 |
| 20260906052240 | 68 | 160 | 0.0 | 2.0 | 0.00 | 0.00 | 2.38 | 82 | 1010.8 |
| 20260906051739 | 68 | 159 | 0.0 | 2.0 | 0.00 | 0.00 | 2.38 | 82 | 1010.8 |
| 20260906051238 | 68 | 160 | 0.0 | 2.0 | 0.00 | 0.00 | 2.38 | 82 | 1010.5 |
| 20260906050736 | 68 | 160 | 1.0 | 2.0 | 0.00 | 0.00 | 2.38 | 82 | 1010.5 |
| 20260906050237 | 68 | 159 | 1.0 | 7.0 | 0.00 | 0.00 | 2.38 | 82 | 1010.2 |
| 20260906045836 | 68 | 159 | 1.0 | 8.0 | 0.00 | 0.00 | 2.38 | 82 | 1010.5 |
| 20260906045337 | 68 | 163 | 5.0 | 8.0 | 0.00 | 0.00 | 2.38 | 82 | 1010.5 |
| 20260906044837 | 68 | 180 | 5.0 | 8.0 | 0.00 | 0.00 | 2.38 | 83 | 1010.5 |
| 20260906044337 | 68 | 199 | 5.0 | 5.0 | 0.00 | 0.00 | 2.38 | 83 | 1010.5 |
| 20260906043937 | 68 | 194 | 2.0 | 3.0 | 0.00 | 0.00 | 2.38 | 83 | 1010.5 |
| 20260906043437 | 68 | 194 | 1.0 | 7.0 | 0.00 | 0.00 | 2.38 | 83 | 1010.5 |
| 20260906042936 | 68 | 194 | 2.0 | 7.0 | 0.00 | 0.00 | 2.38 | 83 | 1010.5 |
| 20260906042435 | 68 | 163 | 5.0 | 6.0 | 0.00 | 0.00 | 2.38 | 82 | 1010.8 |
| 20260906041935 | 69 | 159 | 2.0 | 3.0 | 0.00 | 0.00 | 2.38 | 81 | 1010.8 |
| 20260906041439 | 69 | 157 | 1.0 | 3.0 | 0.00 | 0.00 | 2.38 | 81 | 1010.8 |
| 20260906040935 | 69 | 157 | 1.0 | 6.0 | 0.00 | 0.00 | 2.38 | 80 | 1010.5 |
| 20260906040433 | 69 | 157 | 0.0 | 7.0 | 0.00 | 0.00 | 2.38 | 80 | 1010.5 |
| 20260906035935 | 69 | 164 | 4.0 | 9.0 | 0.00 | 0.00 | 2.38 | 80 | 1010.8 |
| 20260906035536 | 69 | 175 | 6.0 | 9.0 | 0.00 | 0.00 | 2.38 | 81 | 1010.8 |
| 20260906035033 | 68 | 161 | 6.0 | 7.0 | 0.00 | 0.00 | 2.38 | 82 | 1010.5 |
| 20260906034532 | 68 | 171 | 4.0 | 4.0 | 0.00 | 0.00 | 2.38 | 82 | 1010.5 |
| 20260906034032 | 68 | 105 | 2.0 | 3.0 | 0.00 | 0.00 | 2.38 | 81 | 1010.5 |
| 20260906033531 | 69 | 105 | 0.0 | 6.0 | 0.00 | 0.00 | 2.38 | 81 | 1010.2 |
| 20260906033034 | 68 | 105 | 1.0 | 6.0 | 0.00 | 0.00 | 2.38 | 81 | 1010.2 |
| 20260906032534 | 68 | 113 | 2.0 | 7.0 | 0.00 | 0.00 | 2.38 | 80 | 1010.2 |
| 20260906032032 | 69 | 111 | 3.0 | 7.0 | 0.00 | 0.00 | 2.38 | 79 | 1010.2 |
| 20260906031531 | 69 | 98 | 4.0 | 9.0 | 0.00 | 0.00 | 2.38 | 79 | 1010.2 |
| 20260906031130 | 69 | 98 | 2.0 | 13.0 | 0.00 | 0.00 | 2.38 | 79 | 1010.2 |
| 20260906030632 | 69 | 118 | 9.0 | 16.0 | 0.00 | 0.00 | 2.38 | 79 | 1010.2 |
| 20260906030131 | 70 | 129 | 9.0 | 16.0 | 0.00 | 0.00 | 2.38 | 78 | 1009.8 |
| 20260906025638 | 70 | 132 | 10.0 | 16.0 | 0.00 | 0.00 | 2.38 | 78 | 1009.5 |
| 20260906025230 | 70 | 126 | 8.0 | 19.0 | 0.00 | 0.00 | 2.38 | 78 | 1009.5 |
| 20260906024731 | 70 | 122 | 14.0 | 21.0 | 0.00 | 0.00 | 2.38 | 78 | 1009.5 |
| 20260906024230 | 70 | 127 | 10.0 | 25.0 | 0.00 | 0.00 | 2.38 | 77 | 1009.8 |
| 20260906023730 | 70 | 133 | 14.0 | 28.0 | 0.00 | 0.00 | 2.38 | 77 | 1010.2 |
| 20260906023239 | 70 | 161 | 19.0 | 28.0 | 0.00 | 0.00 | 2.38 | 79 | 1010.2 |
| 20260906022831 | 70 | 143 | 18.0 | 26.0 | 0.00 | 0.00 | 2.38 | 79 | 1010.2 |
| 20260906022339 | 70 | 146 | 17.0 | 25.0 | 0.00 | 0.00 | 2.38 | 81 | 1010.2 |
| 20260906021929 | 69 | 131 | 14.0 | 25.0 | 0.00 | 0.00 | 2.38 | 83 | 1010.2 |
| 20260906021432 | 70 | 157 | 19.0 | 28.0 | 0.00 | 0.00 | 2.38 | 83 | 1010.2 |
| 20260906020927 | 70 | 128 | 16.0 | 28.0 | 0.00 | 0.00 | 2.38 | 83 | 1010.2 |
| 20260906020429 | 70 | 148 | 25.0 | 29.0 | 0.00 | 0.00 | 2.38 | 82 | 1009.8 |
| 20260906015928 | 71 | 130 | 20.0 | 28.0 | 0.00 | 0.00 | 2.38 | 82 | 1009.8 |
| 20260906015428 | 71 | 160 | 16.0 | 30.0 | 0.00 | 0.00 | 2.38 | 81 | 1009.8 |
| 20260906014938 | 72 | 164 | 16.0 | 30.0 | 0.00 | 0.00 | 2.38 | 74 | 1009.1 |
| 20260906014528 | 73 | 146 | 16.0 | 25.0 | 0.00 | 0.00 | 2.38 | 70 | 1008.8 |
| 20260906014038 | 72 | 142 | 15.0 | 21.0 | 0.00 | 0.00 | 2.38 | 75 | 1008.8 |
| 20260906013629 | 72 | 139 | 15.0 | 25.0 | 0.00 | 0.00 | 2.38 | 81 | 1008.8 |
| 20260906013129 | 72 | 141 | 14.0 | 25.0 | 0.00 | 0.00 | 2.38 | 80 | 1009.1 |
| 20260906012627 | 72 | 149 | 19.0 | 22.0 | 0.00 | 0.00 | 2.38 | 79 | 1008.8 |
| 20260906012129 | 72 | 169 | 14.0 | 20.0 | 0.00 | 0.00 | 2.38 | 76 | 1009.1 |
| 20260906011636 | 71 | 157 | 11.0 | 15.0 | 0.00 | 0.00 | 2.38 | 75 | 1009.5 |
| 20260906011227 | 70 | 166 | 6.0 | 11.0 | 0.00 | 0.00 | 2.38 | 78 | 1009.5 |
| 20260906010738 | 69 | 142 | 4.0 | 5.0 | 0.00 | 0.00 | 2.38 | 81 | 1009.5 |
| 20260906010326 | 69 | 98 | 3.0 | 6.0 | 0.00 | 0.00 | 2.38 | 80 | 1009.8 |
| 20260906005842 | 69 | 99 | 2.0 | 6.0 | 0.00 | 0.00 | 2.38 | 79 | 1009.5 |
| 20260906005427 | 69 | 79 | 3.0 | 8.0 | 0.00 | 0.00 | 2.38 | 77 | 1009.1 |
| 20260906004926 | 69 | 131 | 4.0 | 13.0 | 0.00 | 0.00 | 2.38 | 77 | 1009.1 |
| 20260906004425 | 69 | 127 | 8.0 | 14.0 | 0.00 | 0.00 | 2.38 | 76 | 1009.1 |
| 20260906004026 | 69 | 142 | 10.0 | 15.0 | 0.00 | 0.00 | 2.38 | 78 | 1008.8 |
| 20260906003542 | 69 | 125 | 12.0 | 15.0 | 0.00 | 0.00 | 2.38 | 81 | 1008.8 |
| 20260906003127 | 69 | 134 | 7.0 | 12.0 | 0.00 | 0.00 | 2.38 | 85 | 1009.1 |
| 20260906002724 | 69 | 138 | 5.0 | 19.0 | 0.00 | 0.00 | 2.38 | 88 | 1009.5 |
| 20260906002224 | 69 | 124 | 9.0 | 19.0 | 0.00 | 0.00 | 2.38 | 90 | 1009.8 |
| 20260906001825 | 68 | 151 | 5.0 | 12.0 | 0.00 | 0.00 | 2.38 | 91 | 1010.2 |
| 20260906001340 | 68 | 252 | 4.0 | 13.0 | 0.00 | 0.00 | 2.38 | 91 | 1010.2 |
| 20260906000924 | 68 | 250 | 1.0 | 13.0 | 0.00 | 0.00 | 2.38 | 91 | 1010.2 |
| 20260906000425 | 68 | 235 | 4.0 | 12.0 | 0.00 | 0.00 | 2.38 | 91 | 1010.2 |
| 20260905235924 | 68 | 255 | 7.0 | 7.0 | 0.00 | 0.00 | 2.38 | 91 | 1010.2 |
| 20260905235422 | 68 | 170 | 2.0 | 9.0 | 0.00 | 0.00 | 2.38 | 91 | 1009.8 |
| 20260905234923 | 68 | 167 | 5.0 | 11.0 | 0.00 | 0.00 | 2.37 | 90 | 1009.5 |
| 20260905234424 | 68 | 157 | 5.0 | 11.0 | 0.00 | 0.00 | 2.36 | 90 | 1009.1 |
| 20260905233924 | 68 | 172 | 2.0 | 8.0 | 0.00 | 0.00 | 2.35 | 89 | 1009.5 |
| 20260905233424 | 68 | 189 | 3.0 | 10.0 | 0.00 | 0.00 | 2.35 | 89 | 1009.1 |
| 20260905232924 | 69 | 138 | 7.0 | 13.0 | 0.00 | 0.00 | 2.33 | 88 | 1008.8 |
| 20260905232523 | 70 | 157 | 5.0 | 13.0 | 0.00 | 0.00 | 2.30 | 87 | 1008.8 |
| 20260905232040 | 70 | 178 | 13.0 | 13.0 | 0.00 | 0.00 | 2.21 | 86 | 1009.5 |
| 20260905231636 | 70 | 160 | 6.0 | 25.0 | 0.00 | 0.00 | 2.13 | 86 | 1008.5 |
| 20260905231224 | 70 | 123 | 13.0 | 28.0 | 0.00 | 0.00 | 2.06 | 86 | 1008.5 |
| 20260905230741 | 68 | 130 | 23.0 | 28.0 | 0.00 | 0.00 | 1.95 | 85 | 1008.5 |
| 20260905230322 | 67 | 151 | 16.0 | 34.0 | 0.00 | 0.00 | 1.90 | 87 | 1008.8 |
| 20260905225840 | 68 | 126 | 20.0 | 34.0 | 0.00 | 0.00 | 1.81 | 88 | 1008.5 |
| 20260905225424 | 67 | 130 | 21.0 | 34.0 | 0.00 | 0.00 | 1.69 | 85 | 1008.1 |
| 20260905224923 | 67 | 113 | 20.0 | 30.0 | 0.00 | 0.00 | 1.55 | 83 | 1008.5 |
| 20260905224420 | 68 | 98 | 11.0 | 24.0 | 0.00 | 0.00 | 1.39 | 78 | 1008.8 |
| 20260905223922 | 68 | 113 | 13.0 | 17.0 | 0.00 | 0.00 | 1.30 | 85 | 1010.2 |
| 20260905223447 | 70 | 156 | 7.0 | 17.0 | 0.00 | 0.00 | 1.01 | 80 | 1009.5 |
| 20260905223033 | 71 | 134 | 4.0 | 21.0 | 0.00 | 0.00 | 0.84 | 76 | 1010.2 |
| 20260905222553 | 73 | 84 | 4.0 | 21.0 | 0.00 | 0.00 | 0.53 | 77 | 1009.5 |
| 20260905222126 | 74 | 22 | 12.0 | 24.0 | 0.00 | 0.00 | 0.33 | 72 | 1009.1 |
| 20260905221629 | 76 | 345 | 12.0 | 32.0 | 0.00 | 0.00 | 0.19 | 72 | 1008.5 |
| 20260905221131 | 75 | 5 | 16.0 | 32.0 | 0.00 | 0.00 | 0.12 | 72 | 1007.1 |
| 20260905220631 | 76 | 300 | 16.0 | 25.0 | 0.00 | 0.00 | 0.04 | 65 | 1006.8 |
| 20260905220145 | 78 | 322 | 17.0 | 21.0 | 0.00 | 0.00 | 0.01 | 63 | 1007.5 |
| 20260905215731 | 81 | 20 | 9.0 | 10.0 | 0.00 | 0.00 | 0.01 | 64 | 1007.5 |
| 20260905215253 | 82 | 88 | 3.0 | 12.0 | 0.00 | 0.00 | 0.01 | 61 | 1007.5 |
| 20260905214830 | 83 | 90 | 6.0 | 12.0 | 0.00 | 0.00 | 0.01 | 57 | 1007.1 |
| 20260905214347 | 83 | 81 | 10.0 | 12.0 | 0.00 | 0.00 | 0.01 | 57 | 1006.8 |
| 20260905213924 | 84 | 90 | 7.0 | 12.0 | 0.00 | 0.00 | 0.01 | 55 | 1006.8 |
| 20260905213431 | 84 | 95 | 3.0 | 12.0 | 0.00 | 0.00 | 0.01 | 55 | 1006.8 |
| 20260905212929 | 84 | 113 | 7.0 | 15.0 | 0.00 | 0.00 | 0.01 | 55 | 1007.1 |
| 20260905212429 | 85 | 128 | 8.0 | 15.0 | 0.00 | 0.00 | 0.00 | 51 | 1006.1 |
| 20260905211952 | 86 | 160 | 6.0 | 15.0 | 0.00 | 0.00 | 0.00 | 49 | 1006.4 |
| 20260905211529 | 87 | 129 | 9.0 | 15.0 | 0.00 | 0.00 | 0.00 | 49 | 1006.4 |
| 20260905211050 | 87 | 140 | 7.0 | 16.0 | 0.00 | 0.00 | 0.00 | 45 | 1006.4 |
| 20260905210630 | 87 | 140 | 9.0 | 16.0 | 0.00 | 0.00 | 0.00 | 46 | 1005.8 |
| 20260905210129 | 87 | 137 | 7.0 | 15.0 | 0.00 | 0.00 | 0.00 | 45 | 1005.8 |
| 20260905205627 | 88 | 136 | 13.0 | 19.0 | 0.00 | 0.00 | 0.00 | 45 | 1006.1 |
| 20260905205128 | 88 | 122 | 15.0 | 19.0 | 0.00 | 0.00 | 0.00 | 46 | 1006.1 |